Tacoma Narrows, WA

2:26 AM PDT on October 19, 2017 (GMT -0700)
Tacoma Narrows

Weather History for KTIW - May, 2014

Change the Weather History Date:

Thursday, May 29, 2014

  Actual Average Record
Temperature  
Mean Temperature 58 °F -  
Max Temperature 64 °F 64 °F 78 °F (2007)
Min Temperature 51 °F 48 °F 44 °F (1999)
Degree Days  
Heating Degree Days 8    
Growing Degree Days 8 (Base 50)    
Moisture  
Dew Point 45 °F    
Average Humidity 67    
Maximum Humidity 86    
Minimum Humidity 43    
Precipitation  
Precipitation 0.00 in - - ()
Sea Level Pressure  
Sea Level Pressure 30.20 in    
Wind  
Wind Speed 12 mph (SSW)    
Max Wind Speed 15 mph    
Max Gust Speed 22 mph    
Visibility 10 miles    
Events      
Averages and records for this station are not official NWS values.
T = Trace of Precipitation, MM = Missing Value Source: NWS Daily Summary

Daily Weather History Graph

Daily Weather History Graph

Search for Another Location

Airport or City:

Trip Planner

Search our weather history database for the weather conditions in past years. The results will help you decide how hot, cold, wet, or windy it might be!

Date:

Astronomy

May. 29, 2014 Rise Set
Actual Time 5:20 AM PDT 8:56 PM PDT
Civil Twilight 4:41 AM PDT 9:34 PM PDT
Nautical Twilight 3:50 AM PDT 10:26 PM PDT
Astronomical Twilight 2:40 AM PDT 11:37 PM PDT
Moon 6:22 AM PDT (5/29) 9:46 PM PDT (5/29)
Length of Visible Light 16h 53m
Length of Day
15h 36m
New Moon, 1% of the Moon is Illuminated
May 29
New Moon
Jun 5
First Quarter
Jun 12
Full
Jun 19
Last Quarter
Jun 27
New

Hourly Weather History & Observations

Time (PDT) Temp. Dew Point Humidity Pressure Visibility Wind Dir Wind Speed Gust Speed Precip Events Conditions
12:08 AM 52.0 °F 44.1 °F 74% 30.16 in 10.0 mi South 15.0 mph - N/A   Mostly Cloudy
12:24 AM 52.0 °F 44.1 °F 74% 30.17 in 10.0 mi South 15.0 mph 21.9 mph N/A   Scattered Clouds
12:53 AM 51.8 °F 44.6 °F 76% 30.17 in 10.0 mi South 11.5 mph - N/A   Partly Cloudy
1:53 AM 53.1 °F 45.0 °F 74% 30.18 in 10.0 mi South 12.7 mph - N/A   Overcast
2:53 AM 52.0 °F 46.0 °F 80% 30.18 in 10.0 mi South 15.0 mph - N/A   Overcast
3:53 AM 52.0 °F 46.0 °F 80% 30.19 in 10.0 mi South 13.8 mph - N/A   Overcast
4:53 AM 51.1 °F 46.9 °F 86% 30.19 in 10.0 mi South 12.7 mph - N/A   Overcast
5:53 AM 51.1 °F 46.0 °F 83% 30.19 in 10.0 mi SSW 8.1 mph - N/A   Overcast
6:53 AM 52.0 °F 46.0 °F 80% 30.20 in 10.0 mi South 8.1 mph - N/A   Overcast
7:53 AM 53.1 °F 46.0 °F 77% 30.22 in 10.0 mi South 8.1 mph - N/A   Overcast
8:53 AM 54.0 °F 46.0 °F 75% 30.22 in 10.0 mi SSW 10.4 mph - N/A   Overcast
9:53 AM 55.9 °F 46.9 °F 72% 30.23 in 10.0 mi South 10.4 mph - N/A   Overcast
10:53 AM 57.9 °F 46.9 °F 67% 30.24 in 10.0 mi South 9.2 mph - N/A   Overcast
11:53 AM 57.9 °F 46.0 °F 65% 30.24 in 10.0 mi South 10.4 mph - N/A   Mostly Cloudy
12:53 PM 61.0 °F 44.1 °F 54% 30.23 in 10.0 mi South 9.2 mph - N/A   Overcast
1:53 PM 62.6 °F 44.6 °F 52% 30.23 in 10.0 mi Variable 6.9 mph - N/A   Mostly Cloudy
2:53 PM 64.4 °F 44.6 °F 49% 30.22 in 10.0 mi West 11.5 mph - N/A   Mostly Cloudy
3:53 PM 64.0 °F 41.0 °F 43% 30.21 in 10.0 mi West 9.2 mph - N/A   Scattered Clouds
4:53 PM 62.1 °F 39.9 °F 44% 30.21 in 10.0 mi West 5.8 mph - N/A   Overcast
5:53 PM 64.0 °F 41.0 °F 43% 30.19 in 10.0 mi WSW 6.9 mph - N/A   Scattered Clouds
6:53 PM 62.1 °F 43.0 °F 50% 30.18 in 10.0 mi Variable 3.5 mph - N/A   Scattered Clouds
7:53 PM 57.9 °F 45.0 °F 62% 30.19 in 10.0 mi North 10.4 mph - N/A   Scattered Clouds
8:53 PM 55.9 °F 46.0 °F 69% 30.18 in 10.0 mi North 12.7 mph - N/A   Scattered Clouds
9:53 PM 55.0 °F 46.0 °F 72% 30.18 in 10.0 mi North 11.5 mph - N/A   Overcast
10:53 PM 54.0 °F 45.0 °F 72% 30.18 in 10.0 mi North 10.4 mph - N/A   Clear
11:53 PM 52.0 °F 45.0 °F 77% 30.18 in 10.0 mi North 9.2 mph - N/A   Clear